[[{"header":{"parameterUnit":"m.s-1","parameterCategory":2,"la1":30.2992,"la2":30.254,"lo1":-89.0895,"lo2":-89.0443,"dy":0.0025,"dx":0.0025,"nx":19,"ny":19,"refTime":"2026-04-07T03:00:00:Z","depth":"0","parameterNumber":2,"parameterNumberName":"U-component_of_CURRENTS"},"data":[0,0,0,-0.2921,-0.2922,-0.2949,-0.2949,-0.2917,-0.2916,0,0,0,0,0,0,0,0,0,0,0,-0.2901,-0.2901,-0.292,-0.2922,-0.2949,-0.2949,-0.2917,-0.2916,0,0,0,0,0,0,0,0,0,0,0,-0.2901,-0.2901,-0.2902,-0.2922,-0.2949,-0.2949,-0.2917,-0.291,0,0,0,0,0,0,0,0,0,0,-0.289,-0.2876,-0.2901,-0.2902,-0.2922,-0.2949,-0.2949,-0.291,-0.291,-0.2889,0,-0.2898,0,-0.2916,-0.2914,-0.2914,0,0,0,-0.2908,-0.2876,-0.2898,-0.2902,-0.2923,-0.2949,-0.2933,-0.291,-0.291,-0.2889,-0.2898,-0.2898,-0.2915,-0.2914,-0.2914,-0.2947,-0.2948,0,0,-0.2906,-0.2889,-0.2898,-0.2899,-0.2935,-0.2932,-0.2934,-0.2911,-0.2903,-0.2898,-0.2898,-0.2915,-0.2914,-0.2913,-0.2947,-0.2948,0,0,0,-0.2911,-0.2887,-0.2911,-0.2899,-0.2915,-0.2933,-0.2935,-0.2903,-0.2916,-0.2898,-0.2914,-0.2913,-0.2913,-0.2946,-0.2947,-0.3017,0,0,0,-0.291,-0.2892,-0.291,-0.2898,-0.2916,-0.2917,-0.2928,-0.2917,-0.2916,-0.2915,-0.2913,-0.2913,-0.2945,-0.2947,-0.3014,-0.305,0,0,0,-0.2899,-0.289,-0.2899,-0.2897,-0.2919,-0.2918,-0.2928,-0.2917,-0.2926,-0.2914,-0.2912,-0.2945,-0.2946,-0.3011,-0.3045,-0.3064,0,0,0,-0.2872,-0.2899,-0.2898,-0.2939,-0.2919,-0.2981,-0.2929,-0.295,-0.2946,-0.2913,-0.2945,-0.2947,-0.301,-0.3042,-0.3061,-0.3034,-0.3046,0,0,-0.2898,-0.2901,-0.2932,-0.2934,-0.3005,-0.2976,-0.3039,-0.3,-0.2961,-0.2944,-0.2945,-0.3015,-0.3045,-0.3063,-0.3123,-0.3132,0,0,0,-0.2937,-0.2953,-0.2978,-0.3015,-0.3055,-0.3087,-0.3063,-0.3053,-0.3037,-0.2969,-0.3027,-0.3043,-0.3052,-0.3031,-0.3038,-0.304,-0.2954,-0.2954,-0.2954,-0.2909,-0.2964,-0.3017,-0.3082,-0.3123,-0.3156,-0.318,-0.3159,-0.3103,-0.3111,-0.3109,-0.3185,-0.3164,-0.3169,-0.3172,-0.3115,-0.3115,-0.3116,-0.3116,-0.2937,-0.2962,-0.3041,-0.3106,-0.3164,-0.3206,-0.3265,-0.3245,-0.3255,-0.3197,-0.3201,-0.3117,-0.3181,-0.3182,-0.3121,-0.312,-0.3119,-0.3119,-0.3118,-0.2892,-0.2914,-0.2965,-0.3061,-0.3142,-0.3217,-0.3299,-0.3324,-0.3311,-0.3335,-0.3261,-0.3259,-0.3249,-0.331,-0.331,-0.331,-0.331,-0.3311,-0.3311,-0.2801,-0.2866,-0.2894,-0.3015,-0.3063,-0.3165,-0.3298,-0.3346,-0.3365,-0.3343,-0.3342,-0.3283,-0.3243,-0.3224,-0.3315,-0.3314,-0.3314,-0.3313,-0.3313,-0.2705,-0.2738,-0.2779,-0.2826,-0.2965,-0.303,-0.3222,-0.3339,-0.3394,-0.3396,-0.336,-0.3342,-0.3311,-0.3304,-0.3286,-0.3388,-0.3388,-0.3388,-0.3388,-0.2599,-0.264,-0.2642,-0.2694,-0.2806,-0.2947,-0.3036,-0.3194,-0.3325,-0.3345,-0.3394,-0.3351,-0.3347,-0.3316,-0.3308,-0.3289,-0.339,-0.339,-0.339,-0.2495,-0.2531,-0.2479,-0.2575,-0.2706,-0.2821,-0.2858,-0.3041,-0.328,-0.3392,-0.341,-0.341,-0.3346,-0.334,-0.3285,-0.3275,-0.324,0,0]},{"header":{"parameterUnit":"m.s-1","parameterCategory":2,"la1":30.2992,"la2":30.254,"lo1":-89.0895,"lo2":-89.0443,"dy":0.0025,"dx":0.0025,"nx":19,"ny":19,"refTime":"2026-04-07T03:00:00:Z","depth":"0","parameterNumber":3,"parameterNumberName":"V-component_of_CURRENTS"},"data":[0,0,0,-0.0377,-0.0375,-0.0229,-0.0229,-0.0026,-0.0025,0,0,0,0,0,0,0,0,0,0,0,-0.0433,-0.0433,-0.0377,-0.0374,-0.023,-0.0229,-0.0027,-0.0025,0,0,0,0,0,0,0,0,0,0,0,-0.0433,-0.0433,-0.0432,-0.0374,-0.023,-0.0229,-0.0027,-0.0135,0,0,0,0,0,0,0,0,0,0,-0.0276,-0.0345,-0.0433,-0.0432,-0.0373,-0.023,-0.0228,-0.014,-0.0129,-0.0094,0,-0.009,0,-0.0059,-0.0013,-0.0012,0,0,0,-0.0352,-0.0355,-0.0312,-0.0432,-0.0372,-0.023,-0.0289,-0.0134,-0.012,-0.0078,-0.0087,-0.0079,-0.0055,-0.0012,-0.0011,0.0124,0.0124,0,0,-0.036,-0.0402,-0.0322,-0.0305,-0.0357,-0.0293,-0.0284,-0.0126,-0.0123,-0.0086,-0.0074,-0.0052,-0.0011,-0.0009,0.0124,0.0124,0,0,0,-0.0398,-0.0408,-0.0369,-0.0313,-0.0292,-0.029,-0.0279,-0.013,-0.0117,-0.0072,-0.005,-0.001,-0.0007,0.0124,0.0124,0.0023,0,0,0,-0.0402,-0.0431,-0.0373,-0.0396,-0.0296,-0.0213,-0.0288,-0.0128,-0.0109,-0.0051,-0.0009,-0.0006,0.0123,0.0124,0.0025,-0.0027,0,0,0,-0.0436,-0.0435,-0.0424,-0.0399,-0.0344,-0.0215,-0.0191,-0.0122,-0.0096,-0.0012,-0.0005,0.0123,0.0124,0.0027,-0.0023,0.0016,0,0,0,-0.0473,-0.0496,-0.0426,-0.0436,-0.0346,-0.0274,-0.0192,-0.0124,-0.0061,-0.0009,0.0123,0.0124,0.0028,-0.002,0.0018,0.0106,0.0106,0,0,-0.0528,-0.0503,-0.0507,-0.0441,-0.0418,-0.0291,-0.0236,-0.0122,-0.004,0.0076,0.008,0.0024,-0.0022,0.0017,0.0126,0.0125,0,0,0,-0.054,-0.0552,-0.053,-0.0496,-0.041,-0.0324,-0.0197,-0.0126,-0.002,-0.0003,0.006,0.0035,0.0062,0.012,0.0119,0.0453,0.0125,0.0125,0.0125,-0.0673,-0.0618,-0.0631,-0.0555,-0.0493,-0.0337,-0.0256,-0.013,-0.0053,-0.0019,-0.0022,-0.0028,0.0032,0.0033,0.0375,0.0015,0.0014,0.0014,0.0014,-0.0787,-0.0801,-0.0715,-0.0712,-0.0587,-0.0517,-0.0312,-0.0232,-0.0101,-0.006,-0.0027,0.0042,0.0026,0.0392,0.0008,0.0009,0.001,0.001,0.0011,-0.0895,-0.0897,-0.088,-0.0861,-0.0792,-0.0635,-0.0541,-0.0373,-0.0204,-0.0175,-0.0035,-0.0032,0.0272,-0.0141,-0.0141,-0.0141,-0.0141,-0.0141,-0.0141,-0.1021,-0.1001,-0.1051,-0.1011,-0.0999,-0.091,-0.067,-0.0536,-0.0273,-0.0127,-0.0124,0.033,-0.0073,-0.0088,-0.0142,-0.0142,-0.0142,-0.0142,-0.0142,-0.1165,-0.1149,-0.1241,-0.1257,-0.122,-0.1162,-0.0916,-0.0548,-0.0357,-0.0205,0.0391,-0.0057,-0.0001,0.0003,-0.0007,-0.0037,-0.0037,-0.0037,-0.0037,-0.1265,-0.1263,-0.1395,-0.1453,-0.1442,-0.1281,-0.1034,-0.0573,0.0127,0.0518,0.0622,0.0713,0.0694,0.0797,0.0783,0.0792,0.0966,0.0968,0.0969,-0.1361,-0.1391,-0.1509,-0.1551,-0.1546,-0.139,-0.1107,-0.0504,0.0557,0.1043,0.1073,0.103,0.1194,0.1136,0.132,0.1273,0.1294,0,0]}],[{"header":{"parameterUnit":"m.s-1","parameterCategory":2,"la1":30.2992,"la2":30.254,"lo1":-89.0895,"lo2":-89.0443,"dy":0.0025,"dx":0.0025,"nx":19,"ny":19,"refTime":"2026-04-07T03:00:00:Z","depth":"2","parameterNumber":2,"parameterNumberName":"U-component_of_CURRENTS"},"data":[0,0,0,-0.282,-0.2821,-0.2853,-0.2853,-0.2823,-0.2823,0,0,0,0,0,0,0,0,0,0,0,-0.2799,-0.2799,-0.282,-0.2821,-0.2853,-0.2853,-0.2823,-0.2823,0,0,0,0,0,0,0,0,0,0,0,-0.2799,-0.2799,-0.28,-0.2821,-0.2853,-0.2853,-0.2823,-0.2813,0,0,0,0,0,0,0,0,0,0,-0.2789,-0.2776,-0.2799,-0.28,-0.2821,-0.2853,-0.2853,-0.2813,-0.2814,-0.2792,0,-0.2803,0,-0.2821,-0.282,-0.282,0,0,0,-0.2807,-0.2775,-0.2798,-0.28,-0.2822,-0.2853,-0.2835,-0.2814,-0.2814,-0.2792,-0.2803,-0.2802,-0.282,-0.282,-0.282,-0.2854,-0.2854,0,0,-0.2805,-0.2788,-0.2798,-0.2799,-0.2836,-0.2834,-0.2836,-0.2815,-0.2808,-0.2803,-0.2802,-0.282,-0.282,-0.282,-0.2853,-0.2854,0,0,0,-0.2809,-0.2787,-0.2811,-0.2799,-0.2816,-0.2835,-0.2838,-0.2808,-0.2821,-0.2802,-0.2819,-0.282,-0.2819,-0.2852,-0.2853,-0.2925,0,0,0,-0.2808,-0.2791,-0.281,-0.2798,-0.2817,-0.2821,-0.2831,-0.2822,-0.2821,-0.282,-0.282,-0.2819,-0.2852,-0.2853,-0.2921,-0.2957,0,0,0,-0.2796,-0.2789,-0.2798,-0.2797,-0.2821,-0.2822,-0.2832,-0.2822,-0.2831,-0.282,-0.2819,-0.2851,-0.2853,-0.2918,-0.2951,-0.2971,0,0,0,-0.277,-0.2797,-0.2798,-0.2839,-0.2821,-0.2883,-0.2833,-0.2856,-0.2853,-0.282,-0.2852,-0.2853,-0.2917,-0.2948,-0.2968,-0.2915,-0.2925,0,0,-0.2796,-0.2799,-0.283,-0.2833,-0.2904,-0.2877,-0.294,-0.2904,-0.2866,-0.2849,-0.285,-0.2922,-0.2951,-0.297,-0.3003,-0.301,0,0,0,-0.2835,-0.2851,-0.2875,-0.2914,-0.2953,-0.2986,-0.2965,-0.2956,-0.2943,-0.2875,-0.2933,-0.2949,-0.2959,-0.2921,-0.2927,-0.286,-0.286,-0.286,-0.286,-0.281,-0.2863,-0.2915,-0.2979,-0.302,-0.3055,-0.3079,-0.3061,-0.3007,-0.3016,-0.3015,-0.3091,-0.3054,-0.3057,-0.3021,-0.3022,-0.3022,-0.3022,-0.3022,-0.2838,-0.2862,-0.294,-0.3004,-0.3062,-0.3105,-0.3165,-0.3147,-0.3159,-0.3102,-0.3107,-0.3009,-0.3068,-0.3028,-0.3027,-0.3026,-0.3026,-0.3025,-0.3025,-0.2795,-0.2816,-0.2867,-0.2962,-0.3043,-0.3119,-0.3199,-0.3226,-0.3216,-0.324,-0.315,-0.3148,-0.312,-0.3217,-0.3217,-0.3217,-0.3218,-0.3218,-0.3218,-0.2706,-0.2771,-0.2799,-0.2919,-0.2967,-0.3068,-0.3201,-0.3248,-0.3259,-0.323,-0.3229,-0.3156,-0.315,-0.3131,-0.3222,-0.3221,-0.3221,-0.322,-0.322,-0.2612,-0.2646,-0.2688,-0.2734,-0.2871,-0.2896,-0.3114,-0.3221,-0.328,-0.3275,-0.322,-0.3218,-0.3184,-0.3178,-0.3159,-0.3252,-0.3252,-0.3252,-0.3252,-0.251,-0.255,-0.2553,-0.2604,-0.2712,-0.2802,-0.2797,-0.2824,-0.2959,-0.2924,-0.2937,-0.2861,-0.287,-0.2812,-0.2814,-0.2784,-0.278,-0.2779,-0.2777,-0.2409,-0.2443,-0.2394,-0.2487,-0.2612,-0.2638,-0.248,-0.229,-0.2411,-0.2748,-0.2738,-0.3243,-0.3168,-0.3166,-0.3104,-0.3097,-0.3061,0,0]},{"header":{"parameterUnit":"m.s-1","parameterCategory":2,"la1":30.2992,"la2":30.254,"lo1":-89.0895,"lo2":-89.0443,"dy":0.0025,"dx":0.0025,"nx":19,"ny":19,"refTime":"2026-04-07T03:00:00:Z","depth":"2","parameterNumber":3,"parameterNumberName":"V-component_of_CURRENTS"},"data":[0,0,0,-0.0374,-0.0372,-0.0229,-0.0228,-0.0027,-0.0025,0,0,0,0,0,0,0,0,0,0,0,-0.043,-0.043,-0.0375,-0.0372,-0.0229,-0.0228,-0.0027,-0.0025,0,0,0,0,0,0,0,0,0,0,0,-0.043,-0.043,-0.0429,-0.0372,-0.0229,-0.0228,-0.0028,-0.0135,0,0,0,0,0,0,0,0,0,0,-0.0274,-0.0343,-0.043,-0.0429,-0.0371,-0.0229,-0.0228,-0.014,-0.0128,-0.0094,0,-0.0089,0,-0.0059,-0.0014,-0.0013,0,0,0,-0.035,-0.0353,-0.031,-0.0429,-0.037,-0.023,-0.0287,-0.0133,-0.012,-0.0078,-0.0086,-0.0079,-0.0056,-0.0012,-0.0012,0.0123,0.0123,0,0,-0.0358,-0.0399,-0.032,-0.0303,-0.0355,-0.0292,-0.0283,-0.0125,-0.0123,-0.0086,-0.0074,-0.0052,-0.0011,-0.001,0.0122,0.0123,0,0,0,-0.0395,-0.0406,-0.0366,-0.0311,-0.029,-0.0288,-0.0278,-0.013,-0.0117,-0.0071,-0.005,-0.001,-0.0008,0.0122,0.0123,0.0022,0,0,0,-0.0399,-0.0428,-0.0371,-0.0393,-0.0294,-0.0212,-0.0287,-0.0127,-0.0108,-0.0051,-0.001,-0.0006,0.0122,0.0122,0.0025,-0.0029,0,0,0,-0.0432,-0.0431,-0.0421,-0.0396,-0.0342,-0.0214,-0.0191,-0.0122,-0.0096,-0.0013,-0.0006,0.0122,0.0122,0.0027,-0.0024,0.0013,0,0,0,-0.0469,-0.0492,-0.0423,-0.0432,-0.0344,-0.0273,-0.0191,-0.0124,-0.0062,-0.0009,0.0122,0.0122,0.0027,-0.0021,0.0015,0.0093,0.0091,0,0,-0.0523,-0.0499,-0.0502,-0.0438,-0.0415,-0.0289,-0.0235,-0.0121,-0.004,0.0075,0.0079,0.0024,-0.0024,0.0014,0.0112,0.011,0,0,0,-0.0535,-0.0547,-0.0525,-0.0492,-0.0406,-0.0322,-0.0196,-0.0125,-0.002,-0.0004,0.0059,0.0033,0.006,0.0111,0.011,0.0124,0.0124,0.0124,0.0124,-0.0666,-0.0612,-0.0624,-0.055,-0.0489,-0.0334,-0.0255,-0.013,-0.0052,-0.0018,-0.0022,-0.003,0.0024,0.0024,0.0015,0.0014,0.0014,0.0014,0.0014,-0.0778,-0.0793,-0.0708,-0.0705,-0.0582,-0.0513,-0.031,-0.023,-0.0102,-0.006,-0.0028,0.0034,0.0016,0.0006,0.0008,0.0009,0.0009,0.001,0.001,-0.0885,-0.0888,-0.087,-0.0852,-0.0785,-0.063,-0.0538,-0.0372,-0.0205,-0.0177,-0.0045,-0.0042,-0.0085,-0.0143,-0.0143,-0.0143,-0.0143,-0.0144,-0.0144,-0.101,-0.099,-0.104,-0.1001,-0.099,-0.0903,-0.0667,-0.0535,-0.028,-0.0138,-0.0136,-0.0081,-0.0076,-0.009,-0.0145,-0.0145,-0.0145,-0.0144,-0.0144,-0.1153,-0.1137,-0.1228,-0.1245,-0.1209,-0.1152,-0.0913,-0.0555,-0.0368,-0.0222,-0.0073,-0.0075,-0.002,-0.0016,-0.0026,-0.0061,-0.0061,-0.0061,-0.0061,-0.1251,-0.125,-0.1381,-0.1439,-0.1429,-0.127,-0.1052,-0.0663,-0.027,-0.0082,-0.0082,-0.0058,-0.0059,-0.0005,-0.0001,-0.0011,-0.0042,-0.0042,-0.0042,-0.1346,-0.1377,-0.1494,-0.1536,-0.1532,-0.1377,-0.1146,-0.0704,-0.0187,-0.0049,-0.0158,-0.0044,-0.0005,-0.0009,0.0081,0.0083,0.0072,0,0]}],[{"header":{"parameterUnit":"m.s-1","parameterCategory":2,"la1":30.2992,"la2":30.254,"lo1":-89.0895,"lo2":-89.0443,"dy":0.0025,"dx":0.0025,"nx":19,"ny":19,"refTime":"2026-04-07T03:00:00:Z","depth":"4","parameterNumber":2,"parameterNumberName":"U-component_of_CURRENTS"},"data":[0,0,0,-0.1753,-0.1757,-0.1927,-0.1927,-0.2011,-0.2011,0,0,0,0,0,0,0,0,0,0,0,-0.1697,-0.1698,-0.1753,-0.1757,-0.1927,-0.1928,-0.2011,-0.2011,0,0,0,0,0,0,0,0,0,0,0,-0.1696,-0.1698,-0.17,-0.1758,-0.1927,-0.1928,-0.2011,-0.1915,0,0,0,0,0,0,0,0,0,0,-0.1766,-0.1736,-0.1698,-0.17,-0.1759,-0.1927,-0.1928,-0.1912,-0.1921,-0.1896,0,-0.1936,0,-0.1973,-0.2014,-0.2014,0,0,0,-0.1754,-0.1729,-0.1774,-0.17,-0.176,-0.1926,-0.1849,-0.1918,-0.1928,-0.1908,-0.1938,-0.1942,-0.1975,-0.2014,-0.2014,-0.2115,-0.2115,0,0,-0.1745,-0.1723,-0.1768,-0.1781,-0.1819,-0.1844,-0.1855,-0.1925,-0.1939,-0.1938,-0.1945,-0.1976,-0.2014,-0.2015,-0.2114,-0.2115,0,0,0,-0.172,-0.1717,-0.1763,-0.1776,-0.1817,-0.1849,-0.1861,-0.1936,-0.1952,-0.1946,-0.1977,-0.2015,-0.2015,-0.2113,-0.2114,-0.2189,0,0,0,-0.1714,-0.1703,-0.1759,-0.1747,-0.1817,-0.1898,-0.187,-0.1948,-0.1957,-0.1977,-0.2015,-0.2016,-0.2112,-0.2114,-0.2185,-0.2213,0,0,0,-0.1686,-0.17,-0.1724,-0.1746,-0.1821,-0.1898,-0.1919,-0.1951,-0.1975,-0.2014,-0.2016,-0.2112,-0.2113,-0.2181,-0.2207,-0.2228,0,0,0,-0.165,-0.1696,-0.1724,-0.1793,-0.182,-0.1935,-0.192,-0.2006,-0.2048,-0.2015,-0.2112,-0.2114,-0.218,-0.2204,-0.2225,-0.1946,0,0,0,-0.1682,-0.1699,-0.1741,-0.1771,-0.188,-0.1911,-0.2024,-0.2068,-0.2062,-0.2076,-0.208,-0.2186,-0.2207,-0.2227,-0.2059,0,0,0,0,-0.1735,-0.1765,-0.1805,-0.1881,-0.1961,-0.2048,-0.2101,-0.2124,-0.2179,-0.2097,-0.2204,-0.2215,-0.2224,-0.2054,-0.2123,-0.2123,-0.2123,-0.2123,-0.2122,-0.1716,-0.1783,-0.1863,-0.1958,-0.2039,-0.2149,-0.2215,-0.2254,-0.2236,-0.2279,-0.2288,-0.2373,-0.2198,-0.2304,-0.2305,-0.2305,-0.2306,-0.2306,-0.2306,-0.1743,-0.1777,-0.1898,-0.2,-0.2109,-0.221,-0.2325,-0.2347,-0.2411,-0.238,-0.2385,-0.2161,-0.2314,-0.2312,-0.2311,-0.231,-0.231,-0.2309,-0.2309,-0.1691,-0.1716,-0.1815,-0.1966,-0.2114,-0.2249,-0.2348,-0.2437,-0.2472,-0.2506,-0.2292,-0.2418,-0.2395,-0.25,-0.25,-0.25,-0.2501,-0.2501,-0.2501,-0.1569,-0.1673,-0.1748,-0.193,-0.2026,-0.2172,-0.2365,-0.2408,-0.2482,-0.2347,-0.252,-0.2437,-0.2431,-0.2406,-0.2505,-0.2504,-0.2504,-0.2503,-0.2503,-0.1456,-0.1525,-0.1611,-0.1707,-0.1914,-0.2004,-0.2239,-0.2276,-0.2292,-0.2232,-0.2249,-0.2261,-0.22,-0.22,-0.2163,-0.2194,-0.2191,-0.2188,0,-0.1347,-0.1398,-0.1473,-0.1567,-0.1669,-0.1879,-0.1875,-0.1978,-0.2046,-0.1967,-0.2261,-0.2276,-0.2283,-0.2212,-0.2206,-0.2161,0,0,0,-0.1252,-0.1298,-0.1292,-0.1426,-0.1537,-0.166,-0.1854,-0.1816,-0.2047,-0.2011,-0.2106,-0.2128,-0.2381,-0.2516,-0.2451,-0.2443,-0.2398,0,0]},{"header":{"parameterUnit":"m.s-1","parameterCategory":2,"la1":30.2992,"la2":30.254,"lo1":-89.0895,"lo2":-89.0443,"dy":0.0025,"dx":0.0025,"nx":19,"ny":19,"refTime":"2026-04-07T03:00:00:Z","depth":"4","parameterNumber":3,"parameterNumberName":"V-component_of_CURRENTS"},"data":[0,0,0,-0.0289,-0.0288,-0.0197,-0.0197,-0.0037,-0.0036,0,0,0,0,0,0,0,0,0,0,0,-0.0323,-0.0323,-0.0289,-0.0288,-0.0197,-0.0197,-0.0037,-0.0036,0,0,0,0,0,0,0,0,0,0,0,-0.0323,-0.0323,-0.0323,-0.0288,-0.0198,-0.0197,-0.0038,-0.0112,0,0,0,0,0,0,0,0,0,0,-0.0203,-0.0254,-0.0323,-0.0323,-0.0287,-0.0198,-0.0197,-0.0116,-0.0107,-0.0072,0,-0.0074,0,-0.0058,-0.0026,-0.0026,0,0,0,-0.0267,-0.0261,-0.0234,-0.0323,-0.0287,-0.0198,-0.0232,-0.0111,-0.0102,-0.0061,-0.0072,-0.0066,-0.0055,-0.0025,-0.0024,0.0086,0.0086,0,0,-0.0273,-0.0301,-0.0241,-0.0229,-0.0282,-0.0236,-0.023,-0.0106,-0.0104,-0.0071,-0.0062,-0.0052,-0.0024,-0.0023,0.0086,0.0086,0,0,0,-0.0301,-0.0305,-0.0282,-0.0236,-0.0226,-0.0233,-0.0227,-0.011,-0.0102,-0.006,-0.0051,-0.0023,-0.0021,0.0086,0.0086,0.0002,0,0,0,-0.0302,-0.0322,-0.0284,-0.0299,-0.023,-0.0175,-0.0234,-0.0111,-0.0096,-0.0051,-0.0023,-0.002,0.0086,0.0086,0.0004,-0.0053,0,0,0,-0.0324,-0.0324,-0.032,-0.0302,-0.0271,-0.0176,-0.0161,-0.0107,-0.0091,-0.0025,-0.002,0.0086,0.0086,0.0006,-0.0049,-0.0022,0,0,0,-0.0346,-0.0364,-0.0321,-0.0332,-0.0272,-0.0226,-0.0161,-0.0114,-0.0066,-0.0023,0.0086,0.0086,0.0007,-0.0046,-0.0021,-0.0078,0,0,0,-0.0384,-0.037,-0.0375,-0.0334,-0.0327,-0.0236,-0.0202,-0.0113,-0.0045,0.0052,0.0054,0.0004,-0.0049,-0.0022,-0.006,0,0,0,0,-0.0396,-0.0407,-0.0394,-0.0379,-0.0323,-0.0272,-0.0175,-0.0118,-0.0032,-0.0018,0.0033,0.0003,0.0022,-0.0004,0.0087,0.0087,0.0087,0.0087,0.0087,-0.0483,-0.0452,-0.0469,-0.0427,-0.039,-0.0285,-0.023,-0.013,-0.006,-0.0032,-0.0043,-0.0055,-0.0085,-0.0005,-0.0005,-0.0005,-0.0006,-0.0006,-0.0006,-0.0562,-0.0574,-0.0535,-0.0546,-0.0472,-0.043,-0.028,-0.0216,-0.0119,-0.0077,-0.0052,-0.0065,-0.0014,-0.0012,-0.0011,-0.001,-0.0009,-0.0009,-0.0009,-0.0627,-0.0631,-0.0641,-0.0654,-0.0631,-0.053,-0.0477,-0.0348,-0.021,-0.0193,-0.0162,-0.0092,-0.0107,-0.0162,-0.0162,-0.0162,-0.0162,-0.0162,-0.0163,-0.0691,-0.0698,-0.0757,-0.0763,-0.078,-0.074,-0.0589,-0.0496,-0.0333,-0.0267,-0.021,-0.0106,-0.0101,-0.0113,-0.0165,-0.0164,-0.0164,-0.0164,-0.0164,-0.0761,-0.0773,-0.0867,-0.091,-0.094,-0.09,-0.077,-0.0555,-0.0459,-0.0356,-0.027,-0.0264,-0.023,-0.0222,-0.0237,-0.0327,-0.0328,-0.0329,0,-0.0808,-0.082,-0.0955,-0.1039,-0.1063,-0.0985,-0.0859,-0.0708,-0.0498,-0.0508,-0.046,-0.0374,-0.0366,-0.0337,-0.033,-0.0355,0,0,0,-0.0854,-0.0894,-0.0996,-0.108,-0.1116,-0.0939,-0.0815,-0.0744,-0.0544,-0.0434,-0.0353,-0.0346,-0.0282,-0.0172,-0.0104,-0.0098,-0.0113,0,0]}]]